Year,Month,Day,Hour,Minute,Value (Times are PST for windgust in km/hr)
2016,06,04,00,01,3.20
2016,06,04,00,03,3.20
2016,06,04,00,05,1.60
2016,06,04,00,10,1.60
2016,06,04,00,12,1.60
2016,06,04,00,13,1.60
2016,06,04,00,14,3.20
2016,06,04,00,15,4.80
2016,06,04,00,16,3.20
2016,06,04,00,17,4.80
2016,06,04,00,18,4.80
2016,06,04,00,19,3.20
2016,06,04,00,20,3.20
2016,06,04,00,21,6.40
2016,06,04,00,22,4.80
2016,06,04,00,23,4.80
2016,06,04,00,24,3.20
2016,06,04,00,25,3.20
2016,06,04,00,26,3.20
2016,06,04,00,27,4.80
2016,06,04,00,28,6.40
2016,06,04,00,29,4.80
2016,06,04,00,30,4.80
2016,06,04,00,31,6.40
2016,06,04,00,32,6.40
2016,06,04,00,33,4.80
2016,06,04,00,34,4.80
2016,06,04,00,35,6.40
2016,06,04,00,36,4.80
2016,06,04,00,37,4.80
2016,06,04,00,38,4.80
2016,06,04,00,39,4.80
2016,06,04,00,40,4.80
2016,06,04,00,41,3.20
2016,06,04,00,42,3.20
2016,06,04,00,43,4.80
2016,06,04,00,44,4.80
2016,06,04,00,45,4.80
2016,06,04,00,46,8.10
2016,06,04,00,47,6.40
2016,06,04,00,48,4.80
2016,06,04,00,49,4.80
2016,06,04,00,50,3.20
2016,06,04,00,51,4.80
2016,06,04,00,52,6.40
2016,06,04,00,53,4.80
2016,06,04,00,54,3.20
2016,06,04,00,55,1.60
2016,06,04,00,56,4.80
2016,06,04,00,57,4.80
2016,06,04,00,58,6.40
2016,06,04,00,59,8.10
2016,06,04,01,00,6.40
2016,06,04,01,01,8.10
2016,06,04,01,02,8.10
2016,06,04,01,03,8.10
2016,06,04,01,04,6.40
2016,06,04,01,05,8.10
2016,06,04,01,06,6.40
2016,06,04,01,07,6.40
2016,06,04,01,08,6.40
2016,06,04,01,09,4.80
2016,06,04,01,10,6.40
2016,06,04,01,11,6.40
2016,06,04,01,12,3.20
2016,06,04,01,13,3.20
2016,06,04,01,14,1.60
2016,06,04,01,15,3.20
2016,06,04,01,16,3.20
2016,06,04,01,17,3.20
2016,06,04,01,18,4.80
2016,06,04,01,19,3.20
2016,06,04,01,20,1.60
2016,06,04,01,21,3.20
2016,06,04,01,22,4.80
2016,06,04,01,23,4.80
2016,06,04,01,24,4.80
2016,06,04,01,25,4.80
2016,06,04,01,26,3.20
2016,06,04,01,27,3.20
2016,06,04,01,30,1.60
2016,06,04,01,34,1.60
2016,06,04,01,39,1.60
2016,06,04,01,49,1.60
2016,06,04,01,50,1.60
2016,06,04,01,52,1.60
2016,06,04,01,53,1.60
2016,06,04,01,55,1.60
2016,06,04,02,12,1.60
2016,06,04,02,13,1.60
2016,06,04,02,14,1.60
2016,06,04,02,15,3.20
2016,06,04,02,16,3.20
2016,06,04,02,17,3.20
2016,06,04,02,18,3.20
2016,06,04,02,23,1.60
2016,06,04,02,39,1.60
2016,06,04,02,52,1.60
2016,06,04,02,53,3.20
2016,06,04,02,54,1.60
2016,06,04,02,55,1.60
2016,06,04,02,56,1.60
2016,06,04,03,17,1.60
2016,06,04,03,19,1.60
2016,06,04,03,21,3.20
2016,06,04,03,22,4.80
2016,06,04,03,23,3.20
2016,06,04,03,24,1.60
2016,06,04,03,26,1.60
2016,06,04,03,29,1.60
2016,06,04,03,30,1.60
2016,06,04,03,31,1.60
2016,06,04,03,32,1.60
2016,06,04,03,33,3.20
2016,06,04,03,34,3.20
2016,06,04,03,35,3.20
2016,06,04,03,36,3.20
2016,06,04,03,37,3.20
2016,06,04,03,38,3.20
2016,06,04,03,39,3.20
2016,06,04,03,40,3.20
2016,06,04,03,41,3.20
2016,06,04,03,43,1.60
2016,06,04,03,52,1.60
2016,06,04,04,05,3.20
2016,06,04,04,06,3.20
2016,06,04,04,07,3.20
2016,06,04,04,08,3.20
2016,06,04,04,09,3.20
2016,06,04,04,10,1.60
2016,06,04,04,11,1.60
2016,06,04,04,56,1.60
2016,06,04,04,57,1.60
2016,06,04,04,58,1.60
2016,06,04,06,04,1.60
2016,06,04,06,05,1.60
2016,06,04,06,06,3.20
2016,06,04,06,07,3.20
2016,06,04,06,08,4.80
2016,06,04,06,09,3.20
2016,06,04,06,10,3.20
2016,06,04,06,11,3.20
2016,06,04,06,12,1.60
2016,06,04,06,13,1.60
2016,06,04,06,14,1.60
2016,06,04,06,20,1.60
2016,06,04,06,33,1.60
2016,06,04,06,41,1.60
2016,06,04,06,43,1.60
2016,06,04,06,44,1.60
2016,06,04,06,46,1.60
2016,06,04,06,47,3.20
2016,06,04,06,53,3.20
2016,06,04,06,54,4.80
2016,06,04,06,55,4.80
2016,06,04,06,56,4.80
2016,06,04,06,57,6.40
2016,06,04,06,58,6.40
2016,06,04,06,59,6.40
2016,06,04,07,00,3.20
2016,06,04,07,01,1.60
2016,06,04,07,02,4.80
2016,06,04,07,03,3.20
2016,06,04,07,04,4.80
2016,06,04,07,05,4.80
2016,06,04,07,07,1.60
2016,06,04,07,08,1.60
2016,06,04,07,09,1.60
2016,06,04,07,10,3.20
2016,06,04,07,11,1.60
2016,06,04,07,12,1.60
2016,06,04,07,13,3.20
2016,06,04,07,14,3.20
2016,06,04,07,16,1.60
2016,06,04,07,17,3.20
2016,06,04,07,18,1.60
2016,06,04,07,19,3.20
2016,06,04,07,21,1.60
2016,06,04,07,22,3.20
2016,06,04,07,23,4.80
2016,06,04,07,24,4.80
2016,06,04,07,25,3.20
2016,06,04,07,26,1.60
2016,06,04,07,27,4.80
2016,06,04,07,28,1.60
2016,06,04,07,29,1.60
2016,06,04,07,31,3.20
2016,06,04,07,32,4.80
2016,06,04,07,33,4.80
2016,06,04,07,34,4.80
2016,06,04,07,35,3.20
2016,06,04,07,36,3.20
2016,06,04,07,37,1.60
2016,06,04,07,38,3.20
2016,06,04,07,39,4.80
2016,06,04,07,40,3.20
2016,06,04,07,41,4.80
2016,06,04,07,42,3.20
2016,06,04,07,43,6.40
2016,06,04,07,44,4.80
2016,06,04,07,45,1.60
2016,06,04,07,46,1.60
2016,06,04,07,47,1.60
2016,06,04,07,48,1.60
2016,06,04,07,49,3.20
2016,06,04,07,50,1.60
2016,06,04,07,51,4.80
2016,06,04,07,52,3.20
2016,06,04,07,53,3.20
2016,06,04,07,54,3.20
2016,06,04,07,55,8.10
2016,06,04,07,56,8.10
2016,06,04,07,57,9.60
2016,06,04,07,58,11.30
2016,06,04,07,59,9.60
2016,06,04,08,00,3.20
2016,06,04,08,01,4.80
2016,06,04,08,02,4.80
2016,06,04,08,03,6.40
2016,06,04,08,04,9.60
2016,06,04,08,05,8.10
2016,06,04,08,06,9.60
2016,06,04,08,07,8.10
2016,06,04,08,08,9.60
2016,06,04,08,09,16.10
2016,06,04,08,10,16.10
2016,06,04,08,11,11.30
2016,06,04,08,12,16.10
2016,06,04,08,13,16.10
2016,06,04,08,14,14.50
2016,06,04,08,15,9.60
2016,06,04,08,16,14.50
2016,06,04,08,17,9.60
2016,06,04,08,18,8.10
2016,06,04,08,19,9.60
2016,06,04,08,20,8.10
2016,06,04,08,21,4.80
2016,06,04,08,22,11.30
2016,06,04,08,23,14.50
2016,06,04,08,24,14.50
2016,06,04,08,25,12.90
2016,06,04,08,26,12.90
2016,06,04,08,27,9.60
2016,06,04,08,28,6.40
2016,06,04,08,29,11.30
2016,06,04,08,30,11.30
2016,06,04,08,31,16.10
2016,06,04,08,32,11.30
2016,06,04,08,33,11.30
2016,06,04,08,34,11.30
2016,06,04,08,35,14.50
2016,06,04,08,36,14.50
2016,06,04,08,37,12.90
2016,06,04,08,38,11.30
2016,06,04,08,39,9.60
2016,06,04,08,40,9.60
2016,06,04,08,41,12.90
2016,06,04,08,42,9.60
2016,06,04,08,43,9.60
2016,06,04,08,44,12.90
2016,06,04,08,45,9.60
2016,06,04,08,46,9.60
2016,06,04,08,47,11.30
2016,06,04,08,48,11.30
2016,06,04,08,49,8.10
2016,06,04,08,50,11.30
2016,06,04,08,51,12.90
2016,06,04,08,52,11.30
2016,06,04,08,53,11.30
2016,06,04,08,54,11.30
2016,06,04,08,55,11.30
2016,06,04,08,56,12.90
2016,06,04,08,57,11.30
2016,06,04,08,58,16.10
2016,06,04,08,59,11.30
2016,06,04,09,00,11.30
2016,06,04,09,01,11.30
2016,06,04,09,02,9.60
2016,06,04,09,03,3.20
2016,06,04,09,04,8.10
2016,06,04,09,05,16.10
2016,06,04,09,06,16.10
2016,06,04,09,07,11.30
2016,06,04,09,08,17.70
2016,06,04,09,09,16.10
2016,06,04,09,10,17.70
2016,06,04,09,11,16.10
2016,06,04,09,12,14.50
2016,06,04,09,13,6.40
2016,06,04,09,14,9.60
2016,06,04,09,15,11.30
2016,06,04,09,16,9.60
2016,06,04,09,17,16.10
2016,06,04,09,18,17.70
2016,06,04,09,19,12.90
2016,06,04,09,20,12.90
2016,06,04,09,21,16.10
2016,06,04,09,22,14.50
2016,06,04,09,23,11.30
2016,06,04,09,24,11.30
2016,06,04,09,25,19.30
2016,06,04,09,26,20.90
2016,06,04,09,27,16.10
2016,06,04,09,28,9.60
2016,06,04,09,29,6.40
2016,06,04,09,30,11.30
2016,06,04,09,31,17.70
2016,06,04,09,32,11.30
2016,06,04,09,33,9.60
2016,06,04,09,34,8.10
2016,06,04,09,35,17.70
2016,06,04,09,36,12.90
2016,06,04,09,37,17.70
2016,06,04,09,38,14.50
2016,06,04,09,39,17.70
2016,06,04,09,40,20.90
2016,06,04,09,41,20.90
2016,06,04,09,42,20.90
2016,06,04,09,43,22.50
2016,06,04,09,44,19.30
2016,06,04,09,45,19.30
2016,06,04,09,46,19.30
2016,06,04,09,47,24.20
2016,06,04,09,48,19.30
2016,06,04,09,49,16.10
2016,06,04,09,50,20.90
2016,06,04,09,51,14.50
2016,06,04,09,52,14.50
2016,06,04,09,53,19.30
2016,06,04,09,54,20.90
2016,06,04,09,55,17.70
2016,06,04,09,56,24.20
2016,06,04,09,57,24.20
2016,06,04,09,58,9.60
2016,06,04,09,59,17.70
2016,06,04,10,00,12.90
2016,06,04,10,01,14.50
2016,06,04,10,02,11.30
2016,06,04,10,03,20.90
2016,06,04,10,04,12.90
2016,06,04,10,05,19.30
2016,06,04,10,06,17.70
2016,06,04,10,07,14.50
2016,06,04,10,08,19.30
2016,06,04,10,09,16.10
2016,06,04,10,10,19.30
2016,06,04,10,11,20.90
2016,06,04,10,12,22.50
2016,06,04,10,13,17.70
2016,06,04,10,14,24.20
2016,06,04,10,15,20.90
2016,06,04,10,16,19.30
2016,06,04,10,17,11.30
2016,06,04,10,18,16.10
2016,06,04,10,19,16.10
2016,06,04,10,20,19.30
2016,06,04,10,21,24.20
2016,06,04,10,22,24.20
2016,06,04,10,23,27.40
2016,06,04,10,24,30.60
2016,06,04,10,25,33.80
2016,06,04,10,26,33.80
2016,06,04,10,27,33.80
2016,06,04,10,28,30.60
2016,06,04,10,29,25.70
2016,06,04,10,30,29.00
2016,06,04,10,31,25.70
2016,06,04,10,32,24.20
2016,06,04,10,33,24.20
2016,06,04,10,34,32.20
2016,06,04,10,35,30.60
2016,06,04,10,36,25.70
2016,06,04,10,37,25.70
2016,06,04,10,38,27.40
2016,06,04,10,39,29.00
2016,06,04,10,40,32.20
2016,06,04,10,41,32.20
2016,06,04,10,42,29.00
2016,06,04,10,43,19.30
2016,06,04,10,44,25.70
2016,06,04,10,45,29.00
2016,06,04,10,46,29.00
2016,06,04,10,47,25.70
2016,06,04,10,48,25.70
2016,06,04,10,49,32.20
2016,06,04,10,50,29.00
2016,06,04,10,51,22.50
2016,06,04,10,52,19.30
2016,06,04,10,53,17.70
2016,06,04,10,54,20.90
2016,06,04,10,55,24.20
2016,06,04,10,56,25.70
2016,06,04,10,57,24.20
2016,06,04,10,58,17.70
2016,06,04,10,59,20.90
2016,06,04,11,00,20.90
2016,06,04,11,01,17.70
2016,06,04,11,02,22.50
2016,06,04,11,03,25.70
2016,06,04,11,04,24.20
2016,06,04,11,05,29.00
2016,06,04,11,06,33.80
2016,06,04,11,07,32.20
2016,06,04,11,08,30.60
2016,06,04,11,09,29.00
2016,06,04,11,10,25.70
2016,06,04,11,11,25.70
2016,06,04,11,12,24.20
2016,06,04,11,13,22.50
2016,06,04,11,14,30.60
2016,06,04,11,15,27.40
2016,06,04,11,16,17.70
2016,06,04,11,17,25.70
2016,06,04,11,18,22.50
2016,06,04,11,19,25.70
2016,06,04,11,20,38.60
2016,06,04,11,21,30.60
2016,06,04,11,22,33.80
2016,06,04,11,23,25.70
2016,06,04,11,24,27.40
2016,06,04,11,25,16.10
2016,06,04,11,26,32.20
2016,06,04,11,27,35.40
2016,06,04,11,28,24.20
2016,06,04,11,29,24.20
2016,06,04,11,30,24.20
2016,06,04,11,31,37.00
2016,06,04,11,32,27.40
2016,06,04,11,33,19.30
2016,06,04,11,34,24.20
2016,06,04,11,35,25.70
2016,06,04,11,36,22.50
2016,06,04,11,37,25.70
2016,06,04,11,38,25.70
2016,06,04,11,39,22.50
2016,06,04,11,40,25.70
2016,06,04,11,41,29.00
2016,06,04,11,42,17.70
2016,06,04,11,43,20.90
2016,06,04,11,44,24.20
2016,06,04,11,45,27.40
2016,06,04,11,46,22.50
2016,06,04,11,47,24.20
2016,06,04,11,48,17.70
2016,06,04,11,49,27.40
2016,06,04,11,50,29.00
2016,06,04,11,51,24.20
2016,06,04,11,52,16.10
2016,06,04,11,53,24.20
2016,06,04,11,54,22.50
2016,06,04,11,55,25.70
2016,06,04,11,56,29.00
2016,06,04,11,57,16.10
2016,06,04,11,58,27.40
2016,06,04,11,59,25.70
2016,06,04,12,00,25.70
2016,06,04,12,01,19.30
2016,06,04,12,02,29.00
2016,06,04,12,03,24.20
2016,06,04,12,04,22.50
2016,06,04,12,05,22.50
2016,06,04,12,06,22.50
2016,06,04,12,07,25.70
2016,06,04,12,08,27.40
2016,06,04,12,09,27.40
2016,06,04,12,10,27.40
2016,06,04,12,11,27.40
2016,06,04,12,12,22.50
2016,06,04,12,13,29.00
2016,06,04,12,14,20.90
2016,06,04,12,15,19.30
2016,06,04,12,16,27.40
2016,06,04,12,17,19.30
2016,06,04,12,18,25.70
2016,06,04,12,19,22.50
2016,06,04,12,20,22.50
2016,06,04,12,21,25.70
2016,06,04,12,22,29.00
2016,06,04,12,23,24.20
2016,06,04,12,24,27.40
2016,06,04,12,25,29.00
2016,06,04,12,26,27.40
2016,06,04,12,27,30.60
2016,06,04,12,28,27.40
2016,06,04,12,29,30.60
2016,06,04,12,30,30.60
2016,06,04,12,31,17.70
2016,06,04,12,32,29.00
2016,06,04,12,33,24.20
2016,06,04,12,34,27.40
2016,06,04,12,35,27.40
2016,06,04,12,36,27.40
2016,06,04,12,37,16.10
2016,06,04,12,38,32.20
2016,06,04,12,39,25.70
2016,06,04,12,40,20.90
2016,06,04,12,41,14.50
2016,06,04,12,42,24.20
2016,06,04,12,43,29.00
2016,06,04,12,44,25.70
2016,06,04,12,45,25.70
2016,06,04,12,46,24.20
2016,06,04,12,47,22.50
2016,06,04,12,48,24.20
2016,06,04,12,49,22.50
2016,06,04,12,50,24.20
2016,06,04,12,51,19.30
2016,06,04,12,52,14.50
2016,06,04,12,53,17.70
2016,06,04,12,54,20.90
2016,06,04,12,55,19.30
2016,06,04,12,56,20.90
2016,06,04,12,57,27.40
2016,06,04,12,58,20.90
2016,06,04,12,59,22.50
2016,06,04,13,00,17.70
2016,06,04,13,01,24.20
2016,06,04,13,02,20.90
2016,06,04,13,03,19.30
2016,06,04,13,04,20.90
2016,06,04,13,05,19.30
2016,06,04,13,06,24.20
2016,06,04,13,07,17.70
2016,06,04,13,08,19.30
2016,06,04,13,09,11.30
2016,06,04,13,10,17.70
2016,06,04,13,11,11.30
2016,06,04,13,12,17.70
2016,06,04,13,13,8.10
2016,06,04,13,14,14.50
2016,06,04,13,15,19.30
2016,06,04,13,16,11.30
2016,06,04,13,17,11.30
2016,06,04,13,18,8.10
2016,06,04,13,19,16.10
2016,06,04,13,20,12.90
2016,06,04,13,21,9.60
2016,06,04,13,22,8.10
2016,06,04,13,23,8.10
2016,06,04,13,24,20.90
2016,06,04,13,25,22.50
2016,06,04,13,26,22.50
2016,06,04,13,27,29.00
2016,06,04,13,28,30.60
2016,06,04,13,29,22.50
2016,06,04,13,30,22.50
2016,06,04,13,31,25.70
2016,06,04,13,32,27.40
2016,06,04,13,33,17.70
2016,06,04,13,34,14.50
2016,06,04,13,35,20.90
2016,06,04,13,36,24.20
2016,06,04,13,37,22.50
2016,06,04,13,38,25.70
2016,06,04,13,39,22.50
2016,06,04,13,40,20.90
2016,06,04,13,41,16.10
2016,06,04,13,42,22.50
2016,06,04,13,43,17.70
2016,06,04,13,44,19.30
2016,06,04,13,45,19.30
2016,06,04,13,46,19.30
2016,06,04,13,47,11.30
2016,06,04,13,48,19.30
2016,06,04,13,49,19.30
2016,06,04,13,50,11.30
2016,06,04,13,51,11.30
2016,06,04,13,52,32.20
2016,06,04,13,53,24.20
2016,06,04,13,54,20.90
2016,06,04,13,55,14.50
2016,06,04,13,56,16.10
2016,06,04,13,57,25.70
2016,06,04,13,58,19.30
2016,06,04,13,59,30.60
2016,06,04,14,00,24.20
2016,06,04,14,01,22.50
2016,06,04,14,02,29.00
2016,06,04,14,03,27.40
2016,06,04,14,04,19.30
2016,06,04,14,05,19.30
2016,06,04,14,06,20.90
2016,06,04,14,07,22.50
2016,06,04,14,08,14.50
2016,06,04,14,09,30.60
2016,06,04,14,10,22.50
2016,06,04,14,11,27.40
2016,06,04,14,12,17.70
2016,06,04,14,13,16.10
2016,06,04,14,14,16.10
2016,06,04,14,15,16.10
2016,06,04,14,16,11.30
2016,06,04,14,17,17.70
2016,06,04,14,18,14.50
2016,06,04,14,19,12.90
2016,06,04,14,20,16.10
2016,06,04,14,21,20.90
2016,06,04,14,22,27.40
2016,06,04,14,23,25.70
2016,06,04,14,24,25.70
2016,06,04,14,25,25.70
2016,06,04,14,26,25.70
2016,06,04,14,27,24.20
2016,06,04,14,28,22.50
2016,06,04,14,29,22.50
2016,06,04,14,30,22.50
2016,06,04,14,31,22.50
2016,06,04,14,32,24.20
2016,06,04,14,33,22.50
2016,06,04,14,34,24.20
2016,06,04,14,35,24.20
2016,06,04,14,36,24.20
2016,06,04,14,37,24.20
2016,06,04,14,38,19.30
2016,06,04,14,39,20.90
2016,06,04,14,40,24.20
2016,06,04,14,41,22.50
2016,06,04,14,42,22.50
2016,06,04,14,43,20.90
2016,06,04,14,44,19.30
2016,06,04,14,45,24.20
2016,06,04,14,46,20.90
2016,06,04,14,47,19.30
2016,06,04,14,48,20.90
2016,06,04,14,49,24.20
2016,06,04,14,50,19.30
2016,06,04,14,51,16.10
2016,06,04,14,52,19.30
2016,06,04,14,53,22.50
2016,06,04,14,54,27.40
2016,06,04,14,55,24.20
2016,06,04,14,56,14.50
2016,06,04,14,57,20.90
2016,06,04,14,58,20.90
2016,06,04,14,59,20.90
2016,06,04,15,00,20.90
2016,06,04,15,01,12.90
2016,06,04,15,02,16.10
2016,06,04,15,03,16.10
2016,06,04,15,04,24.20
2016,06,04,15,05,29.00
2016,06,04,15,06,25.70
2016,06,04,15,07,17.70
2016,06,04,15,08,22.50
2016,06,04,15,09,19.30
2016,06,04,15,10,22.50
2016,06,04,15,11,19.30
2016,06,04,15,12,16.10
2016,06,04,15,13,19.30
2016,06,04,15,14,19.30
2016,06,04,15,15,17.70
2016,06,04,15,16,22.50
2016,06,04,15,17,19.30
2016,06,04,15,18,17.70
2016,06,04,15,19,22.50
2016,06,04,15,20,19.30
2016,06,04,15,21,22.50
2016,06,04,15,22,22.50
2016,06,04,15,23,17.70
2016,06,04,15,24,22.50
2016,06,04,15,25,20.90
2016,06,04,15,26,20.90
2016,06,04,15,27,20.90
2016,06,04,15,28,22.50
2016,06,04,15,29,12.90
2016,06,04,15,30,20.90
2016,06,04,15,31,17.70
2016,06,04,15,32,20.90
2016,06,04,15,33,24.20
2016,06,04,15,34,22.50
2016,06,04,15,35,17.70
2016,06,04,15,36,17.70
2016,06,04,15,37,17.70
2016,06,04,15,38,22.50
2016,06,04,15,39,22.50
2016,06,04,15,40,17.70
2016,06,04,15,41,22.50
2016,06,04,15,42,20.90
2016,06,04,15,43,20.90
2016,06,04,15,44,25.70
2016,06,04,15,45,19.30
2016,06,04,15,46,20.90
2016,06,04,15,47,17.70
2016,06,04,15,48,17.70
2016,06,04,15,49,20.90
2016,06,04,15,50,20.90
2016,06,04,15,51,20.90
2016,06,04,15,52,19.30
2016,06,04,15,53,20.90
2016,06,04,15,54,22.50
2016,06,04,15,55,14.50
2016,06,04,15,56,20.90
2016,06,04,15,57,20.90
2016,06,04,15,58,22.50
2016,06,04,15,59,20.90
2016,06,04,16,00,16.10
2016,06,04,16,01,24.20
2016,06,04,16,02,20.90
2016,06,04,16,03,16.10
2016,06,04,16,04,19.30
2016,06,04,16,05,19.30
2016,06,04,16,06,6.40
2016,06,04,16,07,20.90
2016,06,04,16,08,27.40
2016,06,04,16,09,19.30
2016,06,04,16,10,27.40
2016,06,04,16,11,22.50
2016,06,04,16,12,25.70
2016,06,04,16,13,24.20
2016,06,04,16,14,24.20
2016,06,04,16,15,24.20
2016,06,04,16,16,20.90
2016,06,04,16,17,20.90
2016,06,04,16,18,20.90
2016,06,04,16,19,22.50
2016,06,04,16,20,20.90
2016,06,04,16,21,24.20
2016,06,04,16,22,19.30
2016,06,04,16,23,19.30
2016,06,04,16,24,16.10
2016,06,04,16,25,17.70
2016,06,04,16,26,24.20
2016,06,04,16,27,19.30
2016,06,04,16,28,16.10
2016,06,04,16,29,17.70
2016,06,04,16,30,14.50
2016,06,04,16,31,24.20
2016,06,04,16,32,19.30
2016,06,04,16,33,19.30
2016,06,04,16,34,20.90
2016,06,04,16,35,19.30
2016,06,04,16,36,25.70
2016,06,04,16,37,22.50
2016,06,04,16,38,24.20
2016,06,04,16,39,17.70
2016,06,04,16,40,19.30
2016,06,04,16,41,17.70
2016,06,04,16,42,16.10
2016,06,04,16,43,20.90
2016,06,04,16,44,22.50
2016,06,04,16,45,11.30
2016,06,04,16,46,14.50
2016,06,04,16,47,19.30
2016,06,04,16,48,22.50
2016,06,04,16,49,20.90
2016,06,04,16,50,9.60
2016,06,04,16,51,17.70
2016,06,04,16,52,19.30
2016,06,04,16,53,17.70
2016,06,04,16,54,22.50
2016,06,04,16,55,17.70
2016,06,04,16,56,16.10
2016,06,04,16,57,22.50
2016,06,04,16,58,22.50
2016,06,04,16,59,20.90
2016,06,04,17,00,19.30
2016,06,04,17,01,24.20
2016,06,04,17,02,22.50
2016,06,04,17,03,22.50
2016,06,04,17,04,19.30
2016,06,04,17,05,20.90
2016,06,04,17,06,20.90
2016,06,04,17,07,19.30
2016,06,04,17,08,22.50
2016,06,04,17,09,22.50
2016,06,04,17,10,20.90
2016,06,04,17,11,17.70
2016,06,04,17,12,14.50
2016,06,04,17,13,14.50
2016,06,04,17,14,14.50
2016,06,04,17,15,19.30
2016,06,04,17,16,17.70
2016,06,04,17,17,17.70
2016,06,04,17,18,19.30
2016,06,04,17,19,14.50
2016,06,04,17,20,11.30
2016,06,04,17,21,19.30
2016,06,04,17,22,12.90
2016,06,04,17,23,16.10
2016,06,04,17,24,11.30
2016,06,04,17,25,11.30
2016,06,04,17,26,14.50
2016,06,04,17,27,16.10
2016,06,04,17,28,12.90
2016,06,04,17,29,16.10
2016,06,04,17,30,16.10
2016,06,04,17,31,16.10
2016,06,04,17,32,14.50
2016,06,04,17,33,11.30
2016,06,04,17,34,16.10
2016,06,04,17,35,19.30
2016,06,04,17,36,20.90
2016,06,04,17,37,20.90
2016,06,04,17,38,17.70
2016,06,04,17,39,14.50
2016,06,04,17,40,20.90
2016,06,04,17,41,16.10
2016,06,04,17,42,16.10
2016,06,04,17,43,19.30
2016,06,04,17,44,17.70
2016,06,04,17,45,16.10
2016,06,04,17,46,14.50
2016,06,04,17,47,17.70
2016,06,04,17,48,14.50
2016,06,04,17,49,22.50
2016,06,04,17,50,22.50
2016,06,04,17,51,17.70
2016,06,04,17,52,11.30
2016,06,04,17,53,16.10
2016,06,04,17,54,19.30
2016,06,04,17,55,16.10
2016,06,04,17,56,19.30
2016,06,04,17,57,14.50
2016,06,04,17,58,17.70
2016,06,04,17,59,16.10
2016,06,04,18,00,14.50
2016,06,04,18,01,16.10
2016,06,04,18,02,8.10
2016,06,04,18,03,8.10
2016,06,04,18,04,20.90
2016,06,04,18,05,20.90
2016,06,04,18,06,14.50
2016,06,04,18,07,16.10
2016,06,04,18,08,12.90
2016,06,04,18,09,19.30
2016,06,04,18,10,11.30
2016,06,04,18,11,14.50
2016,06,04,18,12,20.90
2016,06,04,18,13,19.30
2016,06,04,18,14,19.30
2016,06,04,18,15,19.30
2016,06,04,18,16,16.10
2016,06,04,18,17,20.90
2016,06,04,18,18,11.30
2016,06,04,18,19,17.70
2016,06,04,18,20,20.90
2016,06,04,18,21,19.30
2016,06,04,18,22,22.50
2016,06,04,18,23,16.10
2016,06,04,18,24,17.70
2016,06,04,18,25,17.70
2016,06,04,18,26,19.30
2016,06,04,18,27,17.70
2016,06,04,18,28,19.30
2016,06,04,18,29,19.30
2016,06,04,18,30,11.30
2016,06,04,18,31,16.10
2016,06,04,18,32,14.50
2016,06,04,18,33,19.30
2016,06,04,18,34,11.30
2016,06,04,18,35,11.30
2016,06,04,18,36,17.70
2016,06,04,18,37,17.70
2016,06,04,18,38,9.60
2016,06,04,18,39,9.60
2016,06,04,18,40,14.50
2016,06,04,18,41,11.30
2016,06,04,18,42,9.60
2016,06,04,18,43,9.60
2016,06,04,18,44,11.30
2016,06,04,18,45,8.10
2016,06,04,18,46,9.60
2016,06,04,18,47,11.30
2016,06,04,18,48,9.60
2016,06,04,18,49,8.10
2016,06,04,18,50,9.60
2016,06,04,18,51,9.60
2016,06,04,18,52,6.40
2016,06,04,18,53,1.60
2016,06,04,18,54,4.80
2016,06,04,18,55,8.10
2016,06,04,18,56,8.10
2016,06,04,18,57,6.40
2016,06,04,18,58,6.40
2016,06,04,18,59,6.40
2016,06,04,19,00,9.60
2016,06,04,19,01,8.10
2016,06,04,19,02,8.10
2016,06,04,19,03,8.10
2016,06,04,19,04,8.10
2016,06,04,19,05,8.10
2016,06,04,19,06,6.40
2016,06,04,19,07,6.40
2016,06,04,19,08,8.10
2016,06,04,19,09,8.10
2016,06,04,19,10,9.60
2016,06,04,19,11,4.80
2016,06,04,19,12,6.40
2016,06,04,19,13,4.80
2016,06,04,19,14,6.40
2016,06,04,19,15,8.10
2016,06,04,19,16,6.40
2016,06,04,19,17,9.60
2016,06,04,19,18,8.10
2016,06,04,19,19,8.10
2016,06,04,19,20,9.60
2016,06,04,19,21,9.60
2016,06,04,19,22,9.60
2016,06,04,19,23,6.40
2016,06,04,19,24,6.40
2016,06,04,19,25,8.10
2016,06,04,19,26,6.40
2016,06,04,19,27,9.60
2016,06,04,19,28,9.60
2016,06,04,19,29,6.40
2016,06,04,19,30,6.40
2016,06,04,19,31,4.80
2016,06,04,19,32,4.80
2016,06,04,19,33,6.40
2016,06,04,19,34,4.80
2016,06,04,19,35,3.20
2016,06,04,19,36,8.10
2016,06,04,19,37,8.10
2016,06,04,19,38,9.60
2016,06,04,19,39,6.40
2016,06,04,19,40,6.40
2016,06,04,19,41,6.40
2016,06,04,19,42,4.80
2016,06,04,19,43,4.80
2016,06,04,19,44,3.20
2016,06,04,19,45,4.80
2016,06,04,19,46,6.40
2016,06,04,19,47,9.60
2016,06,04,19,48,4.80
2016,06,04,19,49,6.40
2016,06,04,19,50,3.20
2016,06,04,19,51,8.10
2016,06,04,19,52,9.60
2016,06,04,19,53,9.60
2016,06,04,19,54,9.60
2016,06,04,19,55,8.10
2016,06,04,19,56,8.10
2016,06,04,19,57,9.60
2016,06,04,19,58,6.40
2016,06,04,19,59,8.10
2016,06,04,20,00,4.80
2016,06,04,20,01,1.60
2016,06,04,20,02,8.10
2016,06,04,20,03,9.60
2016,06,04,20,04,6.40
2016,06,04,20,05,4.80
2016,06,04,20,06,6.40
2016,06,04,20,07,4.80
2016,06,04,20,08,6.40
2016,06,04,20,09,8.10
2016,06,04,20,10,6.40
2016,06,04,20,11,6.40
2016,06,04,20,12,6.40
2016,06,04,20,13,12.90
2016,06,04,20,14,6.40
2016,06,04,20,15,9.60
2016,06,04,20,16,8.10
2016,06,04,20,17,6.40
2016,06,04,20,18,8.10
2016,06,04,20,19,8.10
2016,06,04,20,20,8.10
2016,06,04,20,21,8.10
2016,06,04,20,22,8.10
2016,06,04,20,23,4.80
2016,06,04,20,24,4.80
2016,06,04,20,25,8.10
2016,06,04,20,26,4.80
2016,06,04,20,27,8.10
2016,06,04,20,28,4.80
2016,06,04,20,29,8.10
2016,06,04,20,30,9.60
2016,06,04,20,31,8.10
2016,06,04,20,32,4.80
2016,06,04,20,33,6.40
2016,06,04,20,34,6.40
2016,06,04,20,35,6.40
2016,06,04,20,36,8.10
2016,06,04,20,37,6.40
2016,06,04,20,38,6.40
2016,06,04,20,39,6.40
2016,06,04,20,40,4.80
2016,06,04,20,41,4.80
2016,06,04,20,42,6.40
2016,06,04,20,43,1.60
2016,06,04,20,44,1.60
2016,06,04,20,45,4.80
2016,06,04,20,46,4.80
2016,06,04,20,47,1.60
2016,06,04,20,48,3.20
2016,06,04,20,49,4.80
2016,06,04,20,50,3.20
2016,06,04,20,51,3.20
2016,06,04,20,52,1.60
2016,06,04,20,53,4.80
2016,06,04,20,54,4.80
2016,06,04,20,55,4.80
2016,06,04,20,56,4.80
2016,06,04,20,57,3.20
2016,06,04,20,58,4.80
2016,06,04,20,59,8.10
2016,06,04,21,00,3.20
2016,06,04,21,02,3.20
2016,06,04,21,03,1.60
2016,06,04,21,04,1.60
2016,06,04,21,05,3.20
2016,06,04,21,06,1.60
2016,06,04,21,07,1.60
2016,06,04,21,08,1.60
2016,06,04,21,11,1.60
2016,06,04,21,18,1.60
2016,06,04,21,25,1.60
2016,06,04,21,39,1.60
2016,06,04,21,40,1.60
2016,06,04,21,44,1.60
2016,06,04,21,45,1.60
2016,06,04,21,49,1.60
2016,06,04,21,51,1.60
2016,06,04,21,57,1.60
2016,06,04,22,00,1.60
2016,06,04,22,01,3.20
2016,06,04,22,02,4.80
2016,06,04,22,03,6.40
2016,06,04,22,04,4.80
2016,06,04,22,05,6.40
2016,06,04,22,06,8.10
2016,06,04,22,07,6.40
2016,06,04,22,08,8.10
2016,06,04,22,09,4.80
2016,06,04,22,10,6.40
2016,06,04,22,11,4.80
2016,06,04,22,12,3.20
2016,06,04,22,13,4.80
2016,06,04,22,14,6.40
2016,06,04,22,15,6.40
2016,06,04,22,16,4.80
2016,06,04,22,17,4.80
2016,06,04,22,18,3.20
2016,06,04,22,19,1.60
2016,06,04,22,20,4.80
2016,06,04,22,21,4.80
2016,06,04,22,23,3.20
2016,06,04,22,24,4.80
2016,06,04,22,25,4.80
2016,06,04,22,26,4.80
2016,06,04,22,27,4.80
2016,06,04,22,28,4.80
2016,06,04,22,29,4.80
2016,06,04,22,30,4.80
2016,06,04,22,31,6.40
2016,06,04,22,32,4.80
2016,06,04,22,33,4.80
2016,06,04,22,34,6.40
2016,06,04,22,35,6.40
2016,06,04,22,36,6.40
2016,06,04,22,37,6.40
2016,06,04,22,38,6.40
2016,06,04,22,39,8.10
2016,06,04,22,40,6.40
2016,06,04,22,41,6.40
2016,06,04,22,42,6.40
2016,06,04,22,43,6.40
2016,06,04,22,44,4.80
2016,06,04,22,45,4.80
2016,06,04,22,46,6.40
2016,06,04,22,47,8.10